Terminal Aerodrome Forecast
Issued by NWS

Home | Current Version | Previous Version | Graphics & Text | Print | Product List | Glossary Off
Versions: 1 2 3 4 5 6 7 8 9 10 11 12 13 14 15 16 17 18 19 20 21 22 23 24 25 26 27 28 29 30 31 32 33 34 35 36 37 38 39 40 41 42 43 44 45 46 47 48 49

000
FTUS43 KDDC 272040 AAA
TAFGCK
TAF AMD
KGCK 272040Z 2721/2818 17014G21KT P6SM -TSRA FEW035CB SCT060 SCT110
      TEMPO 2722/2724 5SM -TSRA BKN050CB
     FM280000 15013KT P6SM SCT050 BKN090=

USA.gov is the U.S. government's official web portal to all federal, state and local government web resources and services.